Notices

What's New in latest Release from April 7th, 2021:

- Updated Glossary, including Speed of Maximum Gust, and Total Hourly Precipitation

- Updated national and regional climate services offices contacts and prices information

- Addition of station inventory lists for 1981-2010, 1971-2000, and 1961-1990 Normals.

If you haven't already, please take our survey and provide feedback about our website: https://eccc.sondage-survey.ca/f/LanguageSelection.aspx?s=442ca660-fcf1-47c0-95a9-59707d6fd709

Hourly Data Report for April 12, 2017

MIRAMICHI RCS
NEW BRUNSWICK

47°00'34.000" N
65°27'54.000" W
33.00 m
8100989
71744
ACQ

Download Data

Hourly Data (April 2017)
Hourly Data Report for April 12, 2017
TIME
LST
Temp Definition
°C
Dew Point Definition
°C
Rel Hum Definition
%
Precip. Amount Definition
mm

Wind Dir Definition
10's deg

Wind Spd Definition
km/h
Visibility Definition
km
Stn Press Definition
kPa
Hmdx Definition


Wind Chill Definition


Weather Definition


00:00 2.9 1.4 89 0.0 6 5   101.95     LegendNANA
01:00 3.1 1.4 89 0.0 2 5   101.93     LegendNANA
02:00 2.9 0.6 85 0.0 3 5   101.92     LegendNANA
03:00 2.6 0.8 88 0.3 3 7   101.90     LegendNANA
04:00 1.9 0.8 92 1.1 3 7   101.88     LegendNANA
05:00 1.6 0.8 94 1.2 5 3   101.89     LegendNANA
06:00 1.3 0.7 95 0.8 5 12   101.86     LegendNANA
07:00 1.6 1.0 96 0.0 3 8   101.88     LegendNANA
08:00 2.3 1.6 95 0.0 4 8   101.88     LegendNANA
09:00 3.1 2.3 94 0.0 5 7   101.92     LegendNANA
10:00 4.0 3.0 93 0.0 5 15   101.88     LegendNANA
11:00 4.2 2.8 91 0.0 6 14   101.87     LegendNANA
12:00 4.7 2.9 88 0.0 6 12   101.82     LegendNANA
13:00 4.6 2.5 87 0.0 4 12   101.76     LegendNANA
14:00 3.9 1.8 86 0.0 4 11   101.74     LegendNANA
15:00 2.9 1.2 88 0.0 6 17   101.70     LegendNANA
16:00 2.7 1.1 89 0.0 7 18   101.61     LegendNANA
17:00 2.6 1.1 89 0.0 7 13   101.55     LegendNANA
18:00 1.8 1.0 95 0.3 6 8   101.51     LegendNANA
19:00 1.5 1.0 96 0.2 6 4   101.49     LegendNANA
20:00 1.3 0.9 97 1.2 5 5   101.43     LegendNANA
21:00 1.3 0.8 97 0.7   0   101.48     LegendNANA
22:00 1.2 0.8 97 2.1   0   101.35     LegendNANA
23:00 1.3 1.0 98 1.2 30 8   101.23     LegendNANA

Notes on Data Quality.

Legend

  • E = Estimated
  • M = Missing
  • NA = Not Available*
  • [empty] = Indicates an unobserved value
Date modified: